Time,TemperatureF,DewpointF,PressureIn,WindDirection,WindDirectionDegrees,WindSpeedMPH,WindSpeedGustMPH,Humidity,HourlyPrecipIn,Conditions,Clouds,dailyrainin,SolarRadiationWatts/m^2,SoftwareType,DateUTC
2013-09-05 00:00:00,57.0,57.0,-100.00,East,100,0.0,0.0,100,-99.99,,,0.00,0.000000,,2013-09-05 07:00:00,
2013-09-05 00:42:00,57.0,57.0,-100.00,East,100,0.0,0.0,100,-99.99,,,0.00,0.000000,,2013-09-05 07:42:00,
2013-09-05 00:52:00,57.0,57.0,-100.00,East,100,0.0,0.0,100,-99.99,,,0.00,0.000000,,2013-09-05 07:52:00,
2013-09-05 01:00:00,56.0,56.0,-100.00,ENE,58,0.0,2.0,100,-99.99,,,0.00,0.000000,,2013-09-05 08:00:00,
2013-09-05 01:42:00,56.0,56.0,-100.00,ENE,58,0.0,2.0,100,-99.99,,,0.00,0.000000,,2013-09-05 08:42:00,
2013-09-05 01:52:00,56.0,56.0,-100.00,ENE,58,0.0,2.0,100,-99.99,,,0.00,0.000000,,2013-09-05 08:52:00,
2013-09-05 02:00:00,58.0,58.0,-100.00,East,88,1.0,2.0,100,-99.99,,,0.00,0.000000,,2013-09-05 09:00:00,
2013-09-05 02:43:00,58.0,58.0,-100.00,East,88,1.0,2.0,100,-99.99,,,0.00,0.000000,,2013-09-05 09:43:00,
2013-09-05 02:54:00,58.0,58.0,-100.00,East,88,1.0,2.0,100,-99.99,,,0.00,0.000000,,2013-09-05 09:54:00,
2013-09-05 03:00:00,58.0,58.0,-100.00,South,179,0.0,1.0,100,-99.99,,,0.00,0.000000,,2013-09-05 10:00:00,
2013-09-05 03:43:00,58.0,58.0,-100.00,South,179,0.0,1.0,100,-99.99,,,0.00,0.000000,,2013-09-05 10:43:00,
2013-09-05 03:53:00,58.0,58.0,-100.00,South,179,0.0,1.0,100,-99.99,,,0.00,0.000000,,2013-09-05 10:53:00,
2013-09-05 04:00:00,58.0,58.0,-100.00,SSW,193,1.0,2.0,100,-99.99,,,0.00,0.000000,,2013-09-05 11:00:00,
2013-09-05 04:42:00,58.0,58.0,-100.00,SSW,193,1.0,2.0,100,-99.99,,,0.00,0.000000,,2013-09-05 11:42:00,
2013-09-05 04:52:00,58.0,58.0,-100.00,SSW,193,1.0,2.0,100,-99.99,,,0.00,0.000000,,2013-09-05 11:52:00,
2013-09-05 05:00:00,58.0,58.0,-100.00,SE,127,1.0,3.0,100,-99.99,,,0.00,0.000000,,2013-09-05 12:00:00,
2013-09-05 05:42:00,58.0,58.0,-100.00,SE,127,1.0,3.0,100,-99.99,,,0.00,0.000000,,2013-09-05 12:42:00,
2013-09-05 05:52:00,58.0,58.0,-100.00,SE,127,1.0,3.0,100,-99.99,,,0.00,0.000000,,2013-09-05 12:52:00,
2013-09-05 06:00:00,58.0,58.0,-100.00,SSW,212,1.0,2.0,100,-99.99,,,0.00,0.000000,,2013-09-05 13:00:00,
2013-09-05 06:53:00,58.0,58.0,-100.00,SSW,212,1.0,2.0,100,-99.99,,,0.00,0.000000,,2013-09-05 13:53:00,
2013-09-05 07:00:00,58.0,58.0,-100.00,West,265,0.0,2.0,100,-99.99,,,0.00,1.160000,,2013-09-05 14:00:00,
2013-09-05 07:42:00,58.0,58.0,-100.00,West,265,0.0,2.0,100,-99.99,,,0.00,1.160000,,2013-09-05 14:42:00,
2013-09-05 07:52:00,58.0,58.0,-100.00,West,265,0.0,2.0,100,-99.99,,,0.00,1.160000,,2013-09-05 14:52:00,
2013-09-05 08:00:00,58.0,58.0,-100.00,WSW,254,0.0,2.0,100,-99.99,,,0.00,5.110000,,2013-09-05 15:00:00,
2013-09-05 08:44:00,58.0,58.0,-100.00,WSW,254,0.0,2.0,100,-99.99,,,0.00,5.110000,,2013-09-05 15:44:00,
2013-09-05 08:54:00,58.0,58.0,-100.00,WSW,254,0.0,2.0,100,-99.99,,,0.00,5.110000,,2013-09-05 15:54:00,
2013-09-05 09:00:00,58.0,58.0,-100.00,SSW,192,1.0,2.0,100,-99.99,,,0.00,43.580002,,2013-09-05 16:00:00,
2013-09-05 09:43:00,58.0,58.0,-100.00,SSW,192,1.0,2.0,100,-99.99,,,0.00,43.580002,,2013-09-05 16:43:00,
2013-09-05 09:54:00,58.0,58.0,-100.00,SSW,192,1.0,2.0,100,-99.99,,,0.00,43.580002,,2013-09-05 16:54:00,
2013-09-05 10:00:00,59.0,59.0,-100.00,WNW,300,2.0,5.0,100,-99.99,,,0.00,97.279999,,2013-09-05 17:00:00,
2013-09-05 10:43:00,59.0,59.0,-100.00,WNW,300,2.0,5.0,100,-99.99,,,0.00,97.279999,,2013-09-05 17:43:00,
2013-09-05 10:52:00,59.0,59.0,-100.00,WNW,300,2.0,5.0,100,-99.99,,,0.00,97.279999,,2013-09-05 17:52:00,
2013-09-05 11:00:00,60.0,60.0,-100.00,WNW,298,2.0,5.0,100,-99.99,,,0.00,113.779999,,2013-09-05 18:00:00,
2013-09-05 11:42:00,60.0,60.0,-100.00,WNW,298,2.0,5.0,100,-99.99,,,0.00,113.779999,,2013-09-05 18:42:00,
2013-09-05 11:52:00,60.0,60.0,-100.00,WNW,298,2.0,5.0,100,-99.99,,,0.00,113.779999,,2013-09-05 18:52:00,
2013-09-05 12:00:00,60.0,60.0,-100.00,North,356,3.0,6.0,100,-99.99,,,0.00,133.539993,,2013-09-05 19:00:00,
2013-09-05 12:42:00,60.0,60.0,-100.00,North,356,3.0,6.0,100,-99.99,,,0.00,133.539993,,2013-09-05 19:42:00,
2013-09-05 12:52:00,60.0,60.0,-100.00,North,356,3.0,6.0,100,-99.99,,,0.00,133.539993,,2013-09-05 19:52:00,
2013-09-05 13:00:00,61.0,61.0,-100.00,WSW,252,2.0,5.0,100,-99.99,,,0.00,290.670013,,2013-09-05 20:00:00,
2013-09-05 13:42:00,61.0,61.0,-100.00,WSW,252,2.0,5.0,100,-99.99,,,0.00,290.670013,,2013-09-05 20:42:00,
2013-09-05 13:52:00,61.0,61.0,-100.00,WSW,252,2.0,5.0,100,-99.99,,,0.00,290.670013,,2013-09-05 20:52:00,
2013-09-05 14:00:00,64.0,63.0,-100.00,WSW,258,3.0,8.0,98,-99.99,,,0.00,602.830017,,2013-09-05 21:00:00,
2013-09-05 14:44:00,64.0,63.0,-100.00,WSW,258,3.0,8.0,98,-99.99,,,0.00,602.830017,,2013-09-05 21:44:00,
2013-09-05 14:54:00,64.0,63.0,-100.00,WSW,258,3.0,8.0,98,-99.99,,,0.00,602.830017,,2013-09-05 21:54:00,
2013-09-05 15:00:00,64.0,62.0,-100.00,West,273,4.0,9.0,92,-99.99,,,0.00,886.289978,,2013-09-05 22:00:00,
2013-09-05 15:43:00,64.0,62.0,-100.00,West,273,4.0,9.0,92,-99.99,,,0.00,886.289978,,2013-09-05 22:43:00,
2013-09-05 15:53:00,64.0,62.0,-100.00,West,273,4.0,9.0,92,-99.99,,,0.00,886.289978,,2013-09-05 22:53:00,
2013-09-05 16:00:00,63.0,61.0,-100.00,WNW,294,3.0,7.0,93,-99.99,,,0.00,255.570007,,2013-09-05 23:00:00,
2013-09-05 16:42:00,63.0,61.0,-100.00,WNW,294,3.0,7.0,93,-99.99,,,0.00,255.570007,,2013-09-05 23:42:00,
2013-09-05 16:53:00,63.0,61.0,-100.00,WNW,294,3.0,7.0,93,-99.99,,,0.00,255.570007,,2013-09-05 23:53:00,
2013-09-05 17:00:00,65.0,62.0,-100.00,West,273,3.0,6.0,90,-99.99,,,0.00,453.720001,,2013-09-06 00:00:00,
2013-09-05 17:42:00,65.0,62.0,-100.00,West,273,3.0,6.0,90,-99.99,,,0.00,453.720001,,2013-09-06 00:42:00,
2013-09-05 17:52:00,65.0,62.0,-100.00,West,273,3.0,6.0,90,-99.99,,,0.00,453.720001,,2013-09-06 00:52:00,
2013-09-05 18:00:00,63.0,60.0,-100.00,WNW,287,2.0,4.0,89,-99.99,,,0.00,100.070000,,2013-09-06 01:00:00,
2013-09-05 18:52:00,63.0,60.0,-100.00,WNW,287,2.0,4.0,89,-99.99,,,0.00,100.070000,,2013-09-06 01:52:00,
2013-09-05 19:00:00,63.0,60.0,-100.00,West,279,0.0,2.0,91,-99.99,,,0.00,13.710000,,2013-09-06 02:00:00,
2013-09-05 19:42:00,63.0,60.0,-100.00,West,279,0.0,2.0,91,-99.99,,,0.00,13.710000,,2013-09-06 02:42:00,
2013-09-05 19:52:00,63.0,60.0,-100.00,West,279,0.0,2.0,91,-99.99,,,0.00,13.710000,,2013-09-06 02:52:00,
2013-09-05 20:00:00,61.0,61.0,-100.00,South,190,1.0,3.0,100,-99.99,,,0.02,2.790000,,2013-09-06 03:00:00,
2013-09-05 20:44:00,61.0,61.0,-100.00,South,190,1.0,3.0,100,-99.99,,,0.02,2.790000,,2013-09-06 03:44:00,
2013-09-05 20:55:00,61.0,61.0,-100.00,South,190,1.0,3.0,100,-99.99,,,0.02,2.790000,,2013-09-06 03:55:00,
2013-09-05 21:00:00,61.0,61.0,-100.00,SSE,160,0.0,2.0,100,-99.99,,,0.02,0.000000,,2013-09-06 04:00:00,
2013-09-05 21:44:00,61.0,61.0,-100.00,SSE,160,0.0,2.0,100,-99.99,,,0.02,0.000000,,2013-09-06 04:44:00,
2013-09-05 21:54:00,61.0,61.0,-100.00,SSE,160,0.0,2.0,100,-99.99,,,0.02,0.000000,,2013-09-06 04:54:00,
2013-09-05 22:00:00,60.0,60.0,-100.00,South,175,0.0,2.0,100,-99.99,,,0.02,0.000000,,2013-09-06 05:00:00,
2013-09-05 22:42:00,60.0,60.0,-100.00,South,175,0.0,2.0,100,-99.99,,,0.02,0.000000,,2013-09-06 05:42:00,
2013-09-05 22:52:00,60.0,60.0,-100.00,South,175,0.0,2.0,100,-99.99,,,0.02,0.000000,,2013-09-06 05:52:00,
2013-09-05 23:00:00,60.0,60.0,-100.00,SSW,200,0.0,2.0,100,-99.99,,,0.02,0.000000,,2013-09-06 06:00:00,
2013-09-05 23:42:00,60.0,60.0,-100.00,SSW,200,0.0,2.0,100,-99.99,,,0.02,0.000000,,2013-09-06 06:42:00,
2013-09-05 23:53:00,60.0,60.0,-100.00,SSW,200,0.0,2.0,100,-99.99,,,0.02,0.000000,,2013-09-06 06:53:00,